sat.trackr.live / text

‹ back to catalog

JILIN-01 KUANFU 02B 3

NORAD 61191 · 2024-169C

PAYLOAD ACTIVE UNKNOWN

§ Identity

Operator
Country
PRC
Launch date
2024-09-20
Launch site
TAISC
Launch vehicle
Mass (kg)
RCS (m²)

External: N2YO · Heavens-Above · Gunter

§ Orbital elements

Epoch: 2026-09-22T21:39:01.646496Z

Period
95.40 min
Inclination
97.5538°
Eccentricity
0.0012694
Mean motion
15.09449383 rev/d
Perigee alt
529.1 km
Apogee alt
546.7 km
Semi-major
6,916.0 km
B*
1.3077e-4
RAAN
353.7571°
Arg perigee
339.6054°
Mean anomaly
20.4666°
Rev number
11,056

§ Raw data

JILIN-01 KUANFU 02B 31 61191U 24169C   26265.90210239  .00002032  00000+0  13077-3 0  99942 61191  97.5538 353.7571 0012694 339.6054  20.4666 15.09449383110563

JSON: /api/v1/satellites/61191 · /tle

For live sub-satellite position, see the globe view (requires WebGL).

§ Visibility from observer

Set your observer location to see the next 7 days of passes ≥ 10°. The values pass through the URL so the page stays shareable.

No JS? Fill the form by hand. The geolocation button needs JavaScript.